NOAA 16 DEB, 41658

Orbit data source: Space-Track

NOAA 16 DEB, 41658 is space debris in SSO originally from a launch on Thu, 21 Sep 2000 UTC launched from the Air Force Western Test Range (AFWTR). Debris objects in space refer to the collection of defunct objects orbiting the Earth. Examples of debris include non-operational satellites, rocket bodies, and fragments generated from explosions, collisions, or faulty payload assembly.

Loading next visibility...
Identifier
41658, 2000-055NX
Orbit
SSO
Country
Flag of USUS
Related business
Manufacturer
Unknown
Mission
Spacecraft
Bus & Motor
Unknown
Mass
Unknown
Launch date (UTC)
2000-09-21 (25 years ago)
Launch vehicle
Unknown
Launch site
Air Force Western Test Range (AFWTR)
Object type
Payload
Rocket body
Debris
Shape & HBR
Unknown shape, 0.1 m
Radar Cross Section
Small (<0.1 m²)

Expand to show TLE details & history
Last TLE update: 2 days ago

TLE from 2 days ago
0 NOAA 16 DEB
1 41658U 00055NX  25352.44398030  .00053234  00000-0  58868-2 0  9996
2 41658  98.8636 168.9330 0012649 222.4302 137.5934 14.87086589 85396
Epoch: 2025-12-18T10:39Z
TLE epoch observation values (Epoch: 2025-12-18T10:39:19.897Z)
Latitude
-0.00003°
Longitude
-78.1993°
Altitude
616.575 km
Speed
7.547 km/s
True Right ascension
11h 15m 43s
True Declination
0° 00' 00"
Sunlit
Object was in daylight at epoch
Visualization orbit readout
Latitude
Unknown
Longitude
Unknown
Altitude
Unknown
Speed
Unknown
Apparent Right ascension
Unknown
Apparent Declination
Unknown
Sunlit
N/A
Visualization observer readout
Local Sidereal Time
09:29:48
Azimuth
Unknown
Elevation
Unknown
Doppler factor
Unknown
Orbital elements
Apogee altitude
612.953 km
Perigee altitude
595.289 km
Semi-major axis
6,982.258 km
Eccentricity
0.00126
Inclination
98.8636°
RAAN
168.933°
Arg. of periapsis
222.4302°
True anomaly
137.69104°
Mean anomaly
137.5934°
Eccentric anomaly
137.64223°
Mean motion
3.72005 °/min
Orbital period
96.77 mins
BSTAR
0.0058868
Loading maneuver chart data...
Computing Atmospheric mass density...
Loading historical data...
Loading historical data...
Loading historical data...
Loading historical data...
Loading historical data...
Loading historical data...
Loading historical data...

Documentation

Showing up to 5 results
|